EW2611 Weather Reports


time (UTC)temp
F
wind
direction
speed
knots
gust
knots
rain 1hr
in
rain 24hr
in
rain mn
in
humidity
%
barometer
mb
20260504081544 46 360 0.0 0.0 0.00 0.00 0.00 89 1016.8
20260504050014 50 360 0.0 0.0 0.00 0.00 0.00 84 1018.0
20260504044517 49 360 0.0 0.0 0.00 0.00 0.00 86 1018.1
20260504043013 49 360 0.0 0.0 0.00 0.00 0.00 87 1018.1
20260504041512 49 360 0.0 0.0 0.00 0.00 0.00 87 1018.2
20260504040012 49 360 0.0 0.0 0.00 0.00 0.00 86 1018.4
20260504034512 49 360 0.0 0.0 0.00 0.00 0.00 86 1018.6
20260504033013 49 360 0.0 0.0 0.00 0.00 0.00 85 1018.7
20260504031513 49 360 0.0 0.0 0.00 0.00 0.00 85 1018.8
20260504030010 49 360 0.0 0.0 0.00 0.00 0.00 83 1018.9
20260504024510 50 360 0.0 0.0 0.00 0.00 0.00 83 1018.8
20260504023010 51 360 0.0 0.0 0.00 0.00 0.00 83 1018.5
20260504021511 51 360 0.0 0.0 0.00 0.00 0.00 81 1018.3
20260504020010 52 360 0.0 0.0 0.00 0.00 0.00 80 1018.2
20260504014508 53 360 0.0 0.0 0.00 0.00 0.00 78 1018.0
20260504013008 54 360 0.0 0.0 0.00 0.00 0.00 76 1017.9
20260504011508 54 360 0.0 0.0 0.00 0.00 0.00 74 1017.8
20260504010007 55 360 0.0 0.0 0.00 0.00 0.00 71 1017.8
20260504004520 56 360 0.0 0.0 0.00 0.00 0.00 68 1017.7
20260504003006 58 360 0.0 0.0 0.00 0.00 0.00 65 1017.7
20260504001516 59 360 0.0 0.0 0.00 0.00 0.00 62 1017.7
20260504000004 61 360 0.0 0.0 0.00 0.00 0.00 57 1017.6
20260503234504 62 360 0.0 0.0 0.00 0.00 0.00 54 1017.7
20260503233004 62 360 0.0 0.0 0.00 0.00 0.00 53 1017.7
20260503231503 63 360 0.0 0.0 0.00 0.00 0.00 50 1017.8
20260503230002 64 360 0.0 0.0 0.00 0.00 0.00 51 1017.8
20260503224611 64 360 0.0 0.0 0.00 0.00 0.00 51 1017.8
20260503223112 65 360 0.0 0.0 0.00 0.00 0.00 48 1017.8
20260503221558 65 360 0.0 0.0 0.00 0.00 0.00 50 1018.1
20260503220056 65 360 0.0 0.0 0.00 0.00 0.00 49 1018.2
20260503214558 65 360 0.0 0.0 0.00 0.00 0.00 49 1018.3
20260503213053 66 360 0.0 0.0 0.00 0.00 0.00 48 1018.4
20260503211552 67 360 0.0 0.0 0.00 0.00 0.00 48 1018.6
20260503210049 66 360 0.0 0.0 0.00 0.00 0.00 48 1018.8
20260503204548 66 360 0.0 0.0 0.00 0.00 0.00 47 1019.0
20260503203049 66 360 0.0 0.0 0.00 0.00 0.00 47 1019.1
20260503201550 66 360 0.0 0.0 0.00 0.00 0.00 50 1019.3
20260503200046 66 360 0.0 0.0 0.00 0.00 0.00 50 1019.5
20260503194556 66 360 0.0 0.0 0.00 0.00 0.00 53 1019.9
20260503191539 66 360 0.0 0.0 0.00 0.00 0.00 50 1020.4
20260503190045 65 360 0.0 0.0 0.00 0.00 0.00 52 1020.8
20260503184534 64 360 0.0 0.0 0.00 0.00 0.00 53 1021.0
20260503183038 64 360 0.0 0.0 0.00 0.00 0.00 52 1021.0
20260503181552 63 360 0.0 0.0 0.00 0.00 0.00 55 1021.2
20260503180041 63 360 0.0 0.0 0.00 0.00 0.00 54 1021.3
20260503174528 63 360 0.0 0.0 0.00 0.00 0.00 53 1021.5
20260503173027 63 360 0.0 0.0 0.00 0.00 0.00 53 1021.6
20260503171526 62 360 0.0 0.0 0.00 0.00 0.00 55 1021.8